Theta_e
326 325 325 325 324 324 323 322 322 322 322 322 322 322 322 322 321 321 323 324 325 327 328 327 327 327 323 310 307 316 333 325 318 315 312 310 308 308 305 307 307 305 308 309 312 313 313
323 322 322 321 321 320 320 320 320 319 319 319 320 319 319 318 318 318 320 322 323 325 326 327 326 325 317 303 312 317 316 315 315 314 311 311 309 310 307 306 305 307 307 307 309 308 309
320 320 320 319 318 318 318 318 318 318 317 317 317 317 316 317 318 319 319 321 322 324 326 326 326 323 310 307 314 317 316 315 315 314 311 312 311 307 308 305 309 307 302 305 306 307 306
319 318 318 317 317 317 317 317 317 317 317 317 317 316 315 316 317 317 318 320 321 324 326 325 326 319 307 314 316 314 316 315 316 315 313 314 314 310 306 308 304 302 304 300 304 304 304
318 318 317 317 317 317 316 316 316 316 316 316 316 315 315 316 317 318 318 320 323 324 324 324 319 312 305 316 311 313 315 311 313 313 314 313 312 308 306 301 300 302 298 300 301 306 304
317 318 318 318 318 317 316 316 316 316 316 316 316 317 317 317 317 317 319 322 325 320 321 321 316 307 309 306 311 312 314 313 310 310 309 308 307 304 304 300 294 296 297 299 299 303 303
318 318 318 317 317 316 316 316 316 316 316 316 317 317 316 316 317 317 320 323 315 311 313 308 308 305 306 313 314 310 312 310 310 307 301 305 299 299 301 302 301 299 298 298 301 304 300
316 317 317 317 317 317 316 316 316 316 316 317 317 317 316 315 315 316 322 315 312 313 306 310 309 309 311 312 306 307 312 305 304 300 302 300 298 302 301 301 300 299 297 298 300 301 299
315 315 316 316 316 316 316 316 316 316 316 316 316 316 315 315 314 318 319 313 319 319 307 306 308 307 308 310 304 305 308 306 302 300 300 297 300 301 300 299 298 299 297 297 296 299 302
313 313 313 314 314 315 315 315 315 315 315 316 316 315 315 314 310 312 316 318 321 320 303 300 304 307 308 309 303 309 309 306 302 299 300 300 302 298 298 297 299 295 299 297 297 296 293
313 312 312 312 313 312 313 313 314 315 315 315 315 314 314 312 309 308 314 317 320 314 292 301 304 311 307 304 303 304 308 305 300 301 299 298 298 298 297 298 299 297 300 298 298 296 295
312 312 312 312 312 312 312 312 313 314 314 314 314 313 312 311 310 313 315 318 315 299 291 298 302 302 301 302 302 304 304 307 305 300 301 300 303 300 300 300 300 300 298 299 299 297 291
312 312 312 312 312 312 311 311 312 312 313 314 313 312 311 313 307 314 315 314 298 292 297 296 297 300 300 300 300 301 300 300 298 295 296 299 298 300 300 297 301 299 296 292 291 292 291
311 312 312 312 312 311 311 311 311 311 312 313 311 311 311 313 314 315 316 303 291 294 296 300 299 300 297 298 299 299 299 298 300 298 296 294 292 296 300 298 297 297 297 292 286 288 291
310 311 311 311 311 311 311 311 311 311 312 311 310 309 311 311 316 318 308 294 293 295 299 298 299 296 297 297 297 298 298 297 298 299 294 294 294 298 298 299 299 296 293 297 292 293 290
309 310 310 310 310 310 310 310 311 311 311 310 305 306 306 312 317 314 302 295 296 301 301 301 294 296 294 296 296 297 297 299 298 299 300 297 292 296 297 299 299 297 299 293 294 287 287
308 308 309 309 310 309 309 310 310 310 311 310 305 301 306 312 314 305 296 297 298 303 302 299 297 296 296 296 297 296 295 299 301 300 300 298 295 294 296 295 296 295 294 295 295 294 289
309 308 308 309 308 309 309 309 309 309 310 308 303 296 307 311 300 300 297 298 299 299 302 300 301 299 298 298 297 296 295 298 302 302 297 299 296 292 295 297 298 298 297 297 292 291 292
308 308 308 309 309 308 308 308 309 310 309 305 297 298 307 308 296 296 297 296 298 298 298 298 297 300 301 297 294 298 298 300 302 301 297 300 295 290 293 294 296 294 296 296 296 295 291
307 307 308 308 309 309 309 308 308 309 309 306 298 293 298 301 299 295 293 293 293 299 297 298 296 299 296 295 299 296 296 299 300 299 301 302 297 293 289 292 295 292 294 295 294 290 292
307 307 307 308 308 308 308 307 308 308 308 306 298 293 294 290 292 293 293 292 290 290 295 297 294 293 292 291 293 293 295 296 298 298 298 297 292 295 296 296 296 295 294 295 293 294 290
307 306 307 307 307 308 307 307 307 308 307 302 295 294 297 293 293 291 290 289 288 289 290 291 290 290 292 290 290 288 291 292 292 295 293 295 290 293 291 294 294 292 295 295 295 295 295
306 306 306 306 306 307 307 308 308 308 307 300 302 301 296 289 290 289 289 288 288 290 291 292 290 289 288 290 293 293 294 293 293 291 290 290 289 289 286 292 292 288 292 294 295 296 296
306 306 305 305 306 306 306 307 307 306 305 303 301 300 293 287 289 288 288 289 288 289 288 291 292 289 292 296 295 294 292 291 291 291 292 288 288 288 285 288 280 291 297 297 294 293 294
305 305 305 305 305 305 306 306 306 306 305 304 304 299 294 288 289 288 288 288 289 290 289 289 291 294 296 293 288 285 286 287 289 291 290 291 287 284 282 284 288 290 293 293 292 289 292
305 305 305 304 305 304 305 306 306 306 305 305 305 305 298 290 289 291 289 289 287 287 288 289 294 296 294 290 286 280 279 282 282 285 294 294 291 285 284 280 279 289 293 296 297 286 292
305 304 304 304 305 304 304 306 306 306 305 305 304 305 299 291 293 293 289 289 291 289 287 289 290 290 294 286 282 281 280 286 279 280 282 285 287 283 283 281 285 291 292 295 284 286 291
304 305 305 305 304 304 304 304 305 305 304 305 303 306 300 292 294 295 295 291 291 289 285 289 288 289 289 284 283 283 282 284 283 285 283 282 281 281 283 280 278 292 290 284 289 291 291
305 305 306 306 306 305 305 305 304 305 304 305 300 305 305 296 294 299 298 298 297 296 292 291 289 289 290 287 287 287 283 286 283 278 287 280 284 282 282 283 289 292 290 292 293 291 292
Wind_Speed
14 14 14 15 14 15 15 15 16 16 17 17 18 19 20 21 22 23 23 22 22 22 20 16 13 10 8 7 6 5 1 4 7 5 4 6 9 4 8 4 6 12 12 4 7 7 10
13 14 14 14 14 15 15 15 16 17 17 18 19 20 21 23 24 24 24 23 24 22 20 15 9 5 9 10 4 3 1 3 3 4 2 5 5 7 9 8 8 9 9 11 10 11 11
13 13 13 13 15 15 15 15 16 17 18 19 19 20 22 23 23 24 24 23 23 21 17 11 5 6 8 7 1 1 2 1 1 3 4 2 5 7 7 9 5 10 12 11 13 14 12
11 12 11 12 13 15 15 15 16 17 18 19 20 21 23 23 24 25 25 24 22 20 11 5 4 8 7 4 5 6 5 6 3 2 2 2 4 7 7 7 11 10 10 9 7 3 4
10 10 10 8 11 13 15 15 16 17 18 19 21 22 24 24 25 26 26 25 22 10 3 4 7 6 4 4 3 2 5 6 3 3 1 3 5 6 5 10 9 9 9 4 2 6 2
11 12 11 11 13 14 15 16 17 18 19 20 22 22 24 26 27 27 25 23 4 4 6 6 6 7 5 2 2 4 2 4 6 4 8 7 6 7 8 7 8 10 9 9 7 4 8
12 12 13 13 13 14 15 17 18 19 19 20 21 22 24 27 27 28 16 4 5 7 3 7 5 5 1 6 3 6 2 5 6 8 10 4 8 9 9 6 7 8 10 11 11 6 7
13 13 13 14 14 14 15 17 18 19 20 20 21 23 25 28 27 25 9 6 7 4 6 2 5 6 8 4 3 5 3 6 5 8 1 7 11 6 3 4 7 10 11 12 8 1 9
13 14 15 15 15 16 17 17 18 20 21 22 23 23 25 28 25 10 9 9 8 3 7 3 1 2 1 5 3 4 4 1 7 9 9 11 6 3 3 6 9 10 9 11 13 14 14
12 13 15 16 16 17 18 18 19 20 21 21 22 23 25 27 11 7 3 10 7 4 6 5 3 4 4 3 5 2 1 4 4 7 5 9 4 4 7 9 8 12 6 6 10 11 8
12 13 14 15 16 17 18 19 20 20 20 21 22 23 24 16 9 5 8 10 4 5 6 3 4 3 1 5 2 4 0 5 10 8 4 1 3 5 7 5 3 4 4 8 11 12 11
11 12 13 14 15 16 17 18 19 20 21 22 22 23 22 0 5 6 11 11 5 7 2 4 2 0 4 5 2 1 3 4 3 7 11 16 1 5 7 2 4 6 10 14 8 7 6
12 11 11 13 14 17 18 20 21 22 22 23 24 22 12 6 6 13 10 6 7 6 3 4 2 2 3 1 3 3 4 6 6 6 5 6 8 1 4 8 8 8 10 4 6 6 4
11 13 13 13 14 17 19 20 22 23 24 23 25 23 3 2 8 8 7 6 7 4 5 2 2 5 4 1 3 2 4 6 3 6 8 6 5 4 3 4 6 1 6 6 5 4 5
10 12 13 14 15 17 18 20 22 24 24 24 25 3 3 8 7 5 6 7 9 7 6 8 5 5 5 2 4 3 1 7 5 6 6 6 2 4 1 2 4 5 4 4 6 4 5
9 10 12 13 14 16 18 21 23 25 25 25 7 3 7 12 7 6 5 5 4 6 8 6 6 3 4 2 5 3 3 8 6 5 6 4 7 2 4 3 3 6 4 4 5 4 4
7 10 12 12 13 14 16 19 21 25 27 26 5 3 9 14 5 6 4 6 3 5 7 6 6 6 4 5 6 4 5 7 9 8 7 7 4 6 4 8 1 5 5 5 4 4 4
8 10 12 12 12 13 16 18 20 22 25 9 5 1 9 10 3 2 1 5 2 5 7 2 4 6 6 6 7 5 3 10 13 7 5 7 7 8 9 6 3 4 7 6 5 4 4
8 10 12 11 11 11 14 17 20 19 19 8 4 4 5 9 2 3 3 2 5 7 8 6 4 6 5 5 5 4 4 5 10 11 9 10 6 7 7 4 2 5 2 7 7 6 11
7 8 9 10 12 10 12 15 18 19 18 8 4 2 4 5 5 6 4 4 2 6 6 5 7 3 7 7 3 4 4 2 6 7 10 7 9 11 12 9 5 6 2 4 7 8 11
7 5 8 9 10 11 12 13 16 18 19 7 5 5 4 4 6 6 6 4 3 5 6 7 3 9 8 5 8 9 7 10 3 3 8 8 9 13 11 13 13 16 16 16 16 17 16
5 6 7 9 9 10 10 11 13 16 21 4 4 5 1 4 5 4 2 4 6 7 7 3 5 7 7 7 7 9 9 11 7 5 10 7 9 13 18 17 20 24 21 21 23 22 24
5 5 6 7 8 8 8 9 9 11 13 3 2 2 5 3 4 5 4 5 5 8 5 4 7 10 9 10 9 12 12 13 15 16 14 10 7 10 17 15 16 17 15 14 20 22 22
6 5 5 7 7 7 8 9 8 6 9 4 4 3 3 3 3 5 4 5 5 6 8 9 9 10 7 11 14 16 18 18 18 18 16 13 13 10 12 12 16 6 7 6 12 10 12
5 4 5 6 6 5 6 7 8 6 4 3 3 4 3 2 4 4 4 6 6 5 8 9 9 6 9 10 9 8 6 10 8 13 14 15 13 8 7 9 15 21 9 9 12 7 11
5 6 5 4 5 3 6 6 6 4 1 4 2 2 3 3 2 4 4 5 7 6 7 1 3 7 5 5 4 5 4 8 3 4 2 9 12 12 9 8 6 13 12 16 12 7 10
6 6 5 4 5 4 4 6 5 5 2 3 1 1 3 2 3 7 6 6 3 4 5 8 5 5 3 4 7 9 11 9 6 5 4 2 4 12 12 11 9 12 19 18 6 8 22
8 6 6 6 5 4 4 4 5 4 0 4 1 2 3 2 7 7 10 11 7 4 3 5 7 4 5 5 4 5 4 5 6 10 10 10 9 8 10 16 20 11 16 10 18 21 20
8 8 7 8 6 5 4 5 3 3 1 7 2 1 1 3 5 7 11 11 14 14 9 5 8 8 3 4 3 4 5 3 5 7 3 6 6 8 8 11 27 24 22 19 20 23 23
Wind_Direction
46 40 35 34 30 23 13 3 3 359 355 351 347 343 339 336 333 329 324 322 321 321 319 313 298 294 280 231 261 89 317 208 254 272 298 312 284 277 260 285 271 252 271 293 269 276 264
45 41 35 31 29 23 14 6 2 358 353 350 347 343 339 335 330 326 322 319 320 319 318 311 285 282 249 260 88 63 359 241 284 280 339 291 335 332 295 282 274 332 292 279 268 262 260
50 43 37 32 26 19 11 5 2 358 354 351 349 345 339 334 328 324 319 315 316 312 311 315 247 244 257 276 46 317 201 228 284 314 308 1 331 286 338 268 289 276 279 272 246 243 252
40 34 32 29 23 15 7 2 360 357 353 350 347 344 337 331 325 321 315 312 308 305 294 289 229 249 276 90 333 237 200 205 211 208 288 317 302 289 268 320 264 263 257 268 112 179 181
27 14 17 12 16 13 4 359 356 354 351 348 345 341 335 329 324 318 313 307 300 283 253 212 234 247 253 135 207 345 246 233 202 210 213 221 254 282 245 247 263 204 296 309 265 188 250
22 21 17 22 17 6 360 356 352 350 347 346 343 337 332 329 325 320 314 293 297 224 212 233 263 250 208 67 342 319 205 238 241 248 236 234 239 254 218 247 308 334 311 316 296 179 226
26 21 13 11 4 2 358 354 350 347 344 343 340 336 332 330 327 320 320 247 219 180 228 320 347 320 56 339 208 208 177 195 224 240 257 169 270 247 341 325 317 302 294 291 295 353 303
16 10 8 6 359 356 353 349 347 345 342 342 341 338 333 330 327 319 323 55 45 326 311 222 276 273 262 308 259 190 217 232 212 254 228 233 242 14 325 292 273 281 283 287 326 50 293
22 17 13 8 3 360 356 350 348 345 343 342 342 338 334 329 322 305 54 41 335 216 264 142 273 293 34 219 259 145 235 262 259 267 255 271 329 74 279 270 272 270 277 304 312 317 270
20 18 13 9 7 3 358 353 349 344 342 341 340 338 335 330 297 350 71 355 345 218 263 120 151 108 172 253 220 352 264 288 223 289 307 273 65 278 263 269 278 281 27 308 299 313 321
13 14 10 8 6 2 356 352 350 344 342 342 339 336 330 330 319 330 349 329 334 231 276 73 105 57 148 263 27 136 128 213 263 266 246 354 248 257 266 316 295 340 332 288 295 286 296
8 8 6 5 5 1 357 353 349 343 341 340 336 331 330 117 260 2 323 314 245 232 156 111 97 61 218 199 170 128 227 227 323 276 242 265 209 268 288 328 265 325 279 264 254 263 227
6 359 1 2 2 359 355 353 349 343 342 338 333 325 322 290 344 325 312 256 247 257 146 87 28 348 304 188 204 253 236 218 262 286 195 207 211 202 264 258 204 255 275 271 205 203 37
11 9 3 1 4 358 354 352 349 344 341 336 327 313 189 298 321 313 284 242 253 57 28 8 308 284 265 353 163 234 257 253 150 275 292 298 205 196 125 279 339 311 321 314 300 328 346
16 18 16 13 4 359 354 350 348 344 338 336 312 331 329 359 333 297 266 238 12 21 352 339 283 259 165 189 277 249 221 12 18 345 294 311 159 122 55 318 287 122 220 15 291 224 265
9 9 7 5 3 359 355 352 350 346 338 335 317 314 29 347 324 268 257 52 37 18 338 318 308 346 298 35 268 231 165 34 341 356 318 2 287 111 105 225 208 281 353 231 192 278 270
357 0 358 358 359 356 354 352 352 349 339 326 284 260 16 338 278 237 279 55 43 22 2 340 346 299 330 329 306 291 47 75 4 326 312 303 247 133 190 201 202 172 220 230 301 270 297
360 350 349 348 357 355 352 351 352 353 344 340 307 289 359 330 240 305 32 17 301 355 2 342 306 319 314 325 302 296 344 24 356 323 350 27 305 274 281 80 23 314 294 278 259 183 257
352 347 348 356 3 358 353 353 351 353 357 321 3 337 358 309 324 79 97 69 43 10 19 0 10 356 340 301 293 347 14 23 13 23 21 348 237 282 199 152 158 239 212 278 303 284 253
343 345 356 4 2 354 354 352 350 350 349 324 311 327 28 56 36 346 345 30 6 28 40 13 1 308 321 270 233 307 334 46 0 13 318 303 277 279 288 345 328 288 261 278 286 269 255
347 0 358 1 1 359 359 352 350 349 342 301 353 57 359 15 37 3 355 346 345 14 354 11 86 28 358 288 314 288 0 329 216 19 346 344 277 286 282 298 286 280 277 272 259 260 263
338 344 353 353 358 0 1 354 352 348 333 30 11 339 57 15 345 337 359 38 33 358 347 23 14 340 323 298 313 300 310 311 295 349 345 328 282 300 279 278 274 273 268 269 262 260 262
320 329 344 344 359 4 357 354 354 354 335 27 74 108 298 26 346 309 44 26 17 349 98 49 344 323 314 339 332 307 293 281 273 283 290 278 280 296 278 281 289 278 270 274 259 259 253
316 314 330 339 355 2 2 3 358 5 353 346 32 316 324 90 335 0 335 324 324 331 307 309 308 308 344 319 299 272 255 255 257 258 252 258 270 273 283 298 264 231 84 31 73 43 35
306 298 306 323 335 12 355 359 1 9 344 334 18 319 350 328 335 266 295 302 298 287 273 301 315 342 328 299 299 299 257 222 239 242 242 238 248 265 261 248 282 299 27 6 324 101 43
281 286 291 312 314 358 350 355 356 17 198 298 16 336 307 321 34 341 279 293 304 310 288 254 327 336 301 287 287 279 295 354 292 297 147 237 221 234 260 262 277 80 7 340 314 191 8
261 263 286 286 298 307 336 344 5 16 184 283 340 265 280 275 294 271 267 320 345 298 295 309 351 305 239 264 273 273 272 277 259 278 275 201 204 233 243 257 280 26 6 328 250 6 326
261 262 268 268 271 282 295 319 346 358 258 222 13 213 271 286 287 250 270 273 270 261 289 332 299 181 278 271 273 282 273 296 313 282 296 290 298 271 261 256 262 359 349 343 318 313 318
259 262 281 263 261 277 287 293 296 324 202 212 271 91 323 254 281 300 276 279 266 271 283 267 270 298 330 295 313 329 308 323 337 287 255 261 274 297 291 299 312 308 309 316 318 312 310